EST,Max TemperatureF,Mean TemperatureF,Min TemperatureF,Max Dew PointF,MeanDew PointF,Min DewpointF,Max Humidity, Mean Humidity, Min Humidity, Max Sea Level PressureIn, Mean Sea Level PressureIn, Min Sea Level PressureIn, Max VisibilityMiles, Mean VisibilityMiles, Min VisibilityMiles, Max Wind SpeedMPH, Mean Wind SpeedMPH, Max Gust SpeedMPH,PrecipitationIn, CloudCover, Events, WindDirDegrees
2013-11-1,70,57,43,58,49,40,92,64,35,29.69,29.58,29.50,10,9,6,28,10,47,0.24,5,Rain,220
2013-11-2,58,48,38,45,40,37,100,78,55,29.87,29.72,29.66,10,8,2,21,3,25,0.02,6,Rain,277
2013-11-3,47,38,28,38,27,18,76,55,34,30.51,30.20,29.90,10,10,10,16,6,22,T,5,Rain,326
2013-11-4,44,33,22,25,20,15,88,61,33,30.68,30.60,30.53,10,10,10,9,2,15,0.00,0,,153
2013-11-5,53,43,33,38,30,22,71,60,49,30.63,30.55,30.44,10,10,10,13,2,17,0.00,2,,20
2013-11-6,62,52,41,48,44,37,82,69,56,30.42,30.22,29.94,10,10,10,26,7,36,0.00,5,,107
2013-11-7,60,50,40,52,43,26,93,74,55,30.02,29.91,29.83,10,8,2,22,8,28,0.41,8,Rain,297
2013-11-8,47,41,35,33,28,24,85,65,45,30.26,30.13,30.02,10,10,9,21,10,28,0.01,6,Rain-Snow,274
2013-11-9,48,40,32,30,27,26,82,62,42,30.30,30.15,29.92,10,10,10,18,6,30,0.00,4,,176
2013-11-10,52,42,32,34,29,27,82,62,42,30.16,29.97,29.88,10,10,10,28,10,41,T,5,Rain,288
2013-11-11,49,39,29,33,29,26,85,64,42,30.24,30.11,29.99,10,10,10,20,5,28,0.00,6,,309
2013-11-12,45,36,26,36,21,9,72,52,32,30.39,30.21,30.02,10,9,2,21,9,26,0.02,6,Rain-Snow,313
2013-11-13,41,33,25,19,16,10,63,52,40,30.46,30.38,30.29,10,10,10,18,7,25,0.00,3,,282
2013-11-14,53,40,27,19,16,11,63,41,19,30.28,30.22,30.16,10,10,10,20,8,25,0.00,0,,261
2013-11-15,54,38,21,30,22,17,81,54,26,30.27,30.21,30.15,10,10,10,12,1,15,T,1,Rain,105
2013-11-16,59,45,30,44,35,28,92,68,44,30.33,30.25,30.19,10,10,8,16,3,24,T,2,,107
2013-11-17,60,55,49,55,50,45,93,86,78,30.19,29.99,29.57,10,6,2,26,12,40,0.20,8,Rain,118
2013-11-18,61,52,42,56,37,24,66,49,32,29.92,29.69,29.54,10,9,2,32,14,47,0.07,5,Rain,256
2013-11-19,43,35,26,26,22,19,75,57,39,30.44,30.18,29.94,10,10,10,23,10,35,T,5,,309
2013-11-20,47,35,22,24,18,8,88,55,21,30.58,30.53,30.44,10,10,10,12,2,16,0.00,0,,125
2013-11-21,43,34,25,33,23,11,79,61,43,30.59,30.49,30.36,10,10,10,14,3,16,T,5,Rain,89
2013-11-22,48,44,40,43,40,32,93,79,65,30.34,30.11,30.01,10,4,1,18,2,24,0.07,8,Rain,257
2013-11-23,44,33,22,29,19,3,70,54,37,30.17,30.10,29.98,10,10,8,30,13,37,T,3,Snow,281
2013-11-24,29,24,19,14,3,-3,57,43,29,30.45,30.33,30.17,10,10,10,25,12,35,T,2,,301
2013-11-25,33,26,18,14,10,6,77,55,33,30.50,30.39,30.26,10,10,10,14,6,21,0.00,2,,275
2013-11-26,33,31,28,32,26,9,96,64,32,30.28,30.11,29.66,10,3,0,10,6,14,1.41,8,Fog-Rain-Snow,75
2013-11-27,37,33,28,34,28,15,100,78,56,29.91,29.64,29.53,10,7,2,24,11,35,0.39,8,Rain-Snow,281
2013-11-28,32,28,24,19,17,13,81,65,49,30.46,30.26,29.96,10,9,2,18,9,24,T,7,Snow,280
2013-11-29,33,25,17,22,18,14,88,69,49,30.76,30.61,30.46,10,10,10,13,2,15,0.00,5,,304
2013-11-30,33,23,13,19,14,9,88,65,41,30.76,30.61,30.35,10,10,10,14,3,25,0.00,1,,80